Location: Bougoudala
(13.2282°N, 4.9477°W)
Time: 15:17:03
(UTC+00:00)

Centaur Rocket - Pass Details

Date: 29 January 2020
Orbit: 251 x 9228 km, 18.1° (Epoch: 17 February)

Event Time Altitude Azimuth Distance (km) Brightness Sun altitude
Rises 20:15:40 0° 244° (WSW) 2,379 7.2 -28.2°
Reaches altitude 10° 20:17:05 10° 239° (WSW) 1,775 6.3 -28.5°
Enters shadow 20:20:21 60° 183° (S) 966 3.9 -29.3°
